When you browse on this site, cookies collect data to enhance your experience and personalize the content and advertising you see.
Visit our Privacy Policy to learn more. By continuing to use the site, you agree to this use of cookies and data.
  • In Spain
  • List of Countries
  • For 7 days
  • Water Temperature
  • Weather Map
  • Weather Widgets
  • user-avatar
    Login

    Hourly Weather Booué

    Today, 31 May, Sunday

    Time Temperature Precipitation Wind Pressure Humidity
    00:00 +23°C° 2.8 mm 0 mps 735 mmHg 97%
    01:00 +24°C° 2.8 mm 1 mps 735 mmHg 98%
    02:00 +22°C° 0.5 mm 0 mps 734 mmHg 98%
    03:00 +22°C° 0.5 mm 0 mps 734 mmHg 98%
    04:00 +22°C° 0.5 mm 0 mps 734 mmHg 99%
    05:00 +22°C° 0 mm 0 mps 734 mmHg 98%
    06:00 +22°C° 0 mm 0 mps 735 mmHg 98%
    07:00 +22°C° 0 mm 0 mps 736 mmHg 97%
    08:00 +24°C° 0 mm 0 mps 736 mmHg 92%
    09:00 +26°C° 0 mm 0 mps 736 mmHg 86%
    10:00 +27°C° 0 mm 0 mps 736 mmHg 80%
    11:00 +28°C° 0.1 mm 0 mps 736 mmHg 74%
    12:00 +30°C° 0.1 mm 0 mps 735 mmHg 68%
    13:00 +31°C° 0.1 mm 0 mps 735 mmHg 63%
    14:00 +30°C° 0.5 mm 0 mps 734 mmHg 68%
    15:00 +29°C° 0.5 mm 0 mps 734 mmHg 74%
    16:00 +27°C° 0.5 mm 0 mps 733 mmHg 79%
    17:00 +26°C° 0.4 mm 0 mps 733 mmHg 83%
    18:00 +25°C° 0.4 mm 0 mps 734 mmHg 88%
    19:00 +26°C° 0.4 mm 1 mps 735 mmHg 92%
    20:00 +26°C° 1 mm 1 mps 735 mmHg 93%
    21:00 +24°C° 1 mm 0 mps 735 mmHg 95%
    22:00 +23°C° 1 mm 0 mps 735 mmHg 96%
    23:00 +23°C° 0.1 mm 0 mps 735 mmHg 97%

    Tomorrow, 1 June, Monday

    Time Temperature Precipitation Wind Pressure Humidity
    00:00 +25°C° 0.1 mm 1 mps 735 mmHg 97%
    01:00 +25°C° 0.1 mm 1 mps 736 mmHg 98%
    02:00 +22°C° 0.4 mm 0 mps 735 mmHg 98%
    03:00 +22°C° 0.4 mm 0 mps 735 mmHg 98%
    04:00 +22°C° 0.4 mm 0 mps 735 mmHg 99%
    05:00 +22°C° 1.2 mm 0 mps 735 mmHg 98%
    06:00 +23°C° 1.2 mm 0 mps 735 mmHg 98%
    07:00 +23°C° 1.2 mm 0 mps 736 mmHg 98%
    08:00 +23°C° 0 mm 0 mps 736 mmHg 96%
    09:00 +26°C° 0 mm 1 mps 736 mmHg 94%
    10:00 +27°C° 0 mm 1 mps 736 mmHg 92%
    11:00 +28°C° 0 mm 1 mps 735 mmHg 83%
    12:00 +30°C° 0 mm 1 mps 735 mmHg 74%
    13:00 +32°C° 0 mm 1 mps 735 mmHg 65%
    14:00 +31°C° 1.3 mm 1 mps 734 mmHg 70%
    15:00 +30°C° 1.3 mm 1 mps 733 mmHg 76%
    16:00 +27°C° 1.3 mm 0 mps 733 mmHg 81%
    17:00 +26°C° 1.6 mm 0 mps 733 mmHg 86%
    18:00 +25°C° 1.6 mm 0 mps 734 mmHg 90%
    19:00 +24°C° 1.6 mm 0 mps 735 mmHg 95%
    20:00 +23°C° 0.2 mm 0 mps 735 mmHg 95%
    21:00 +23°C° 0.2 mm 0 mps 735 mmHg 96%
    22:00 +23°C° 0.2 mm 0 mps 735 mmHg 97%
    23:00 +23°C° 0 mm 0 mps 735 mmHg 97%

    Day after tomorrow, 2 June, Tuesday

    Time Temperature Precipitation Wind Pressure Humidity
    00:00 +23°C° 0 mm 0 mps 735 mmHg 97%
    01:00 +23°C° 0 mm 0 mps 735 mmHg 98%
    02:00 +22°C° 0 mm 0 mps 735 mmHg 98%
    03:00 +22°C° 0 mm 0 mps 735 mmHg 98%
    04:00 +22°C° 0 mm 0 mps 734 mmHg 98%
    05:00 +22°C° 0.1 mm 0 mps 735 mmHg 98%
    06:00 +23°C° 0.1 mm 0 mps 735 mmHg 97%
    07:00 +23°C° 0.1 mm 0 mps 736 mmHg 97%
    08:00 +24°C° 0 mm 0 mps 736 mmHg 89%
    09:00 +26°C° 0 mm 0 mps 736 mmHg 81%
    10:00 +30°C° 0 mm 1 mps 736 mmHg 73%
    11:00 +31°C° 0 mm 1 mps 736 mmHg 70%
    12:00 +31°C° 0 mm 1 mps 735 mmHg 67%
    13:00 +32°C° 0 mm 1 mps 735 mmHg 65%
    14:00 +32°C° 0.1 mm 1 mps 734 mmHg 66%
    15:00 +32°C° 0.1 mm 1 mps 733 mmHg 67%
    16:00 +32°C° 0.1 mm 1 mps 733 mmHg 68%
    17:00 +30°C° 1.4 mm 1 mps 733 mmHg 76%
    18:00 +26°C° 1.4 mm 0 mps 733 mmHg 85%
    19:00 +24°C° 1.4 mm 0 mps 734 mmHg 93%
    20:00 +24°C° 1.1 mm 0 mps 734 mmHg 94%
    21:00 +24°C° 1.1 mm 0 mps 734 mmHg 95%
    22:00 +25°C° 1.1 mm 1 mps 735 mmHg 96%
    23:00 +25°C° 0.3 mm 1 mps 735 mmHg 96%

    3 June, Wednesday

    Time Temperature Precipitation Wind Pressure Humidity
    00:00 +25°C° 0.3 mm 1 mps 735 mmHg 96%
    01:00 +25°C° 0.3 mm 1 mps 734 mmHg 97%
    02:00 +25°C° 0 mm 1 mps 734 mmHg 97%
    03:00 +25°C° 0 mm 1 mps 734 mmHg 98%
    04:00 +24°C° 0 mm 1 mps 734 mmHg 98%
    05:00 +22°C° 0 mm 0 mps 734 mmHg 98%
    06:00 +23°C° 0 mm 0 mps 734 mmHg 97%
    07:00 +23°C° 0 mm 0 mps 735 mmHg 97%
    08:00 +24°C° 0 mm 0 mps 735 mmHg 90%
    09:00 +28°C° 0 mm 1 mps 735 mmHg 84%
    10:00 +29°C° 0 mm 1 mps 736 mmHg 77%
    11:00 +31°C° 0 mm 1 mps 735 mmHg 71%
    12:00 +32°C° 0 mm 1 mps 734 mmHg 65%
    13:00 +33°C° 0 mm 1 mps 734 mmHg 59%
    14:00 +32°C° 1.4 mm 1 mps 733 mmHg 67%
    15:00 +31°C° 1.4 mm 1 mps 733 mmHg 74%
    16:00 +30°C° 1.4 mm 1 mps 732 mmHg 82%
    17:00 +29°C° 3.3 mm 1 mps 733 mmHg 86%
    18:00 +27°C° 3.3 mm 1 mps 733 mmHg 89%
    19:00 +26°C° 3.3 mm 1 mps 733 mmHg 93%
    20:00 +25°C° 0.3 mm 1 mps 734 mmHg 94%
    21:00 +25°C° 0.3 mm 1 mps 734 mmHg 95%
    22:00 +25°C° 0.3 mm 1 mps 735 mmHg 96%
    23:00 +25°C° 0 mm 1 mps 735 mmHg 96%

    4 June, Thursday

    Time Temperature Precipitation Wind Pressure Humidity
    00:00 +22°C° 0 mm 0 mps 734 mmHg 96%
    01:00 +22°C° 0 mm 0 mps 734 mmHg 96%
    02:00 +22°C° 0 mm 0 mps 734 mmHg 97%
    03:00 +22°C° 0 mm 0 mps 734 mmHg 97%
    04:00 +22°C° 0 mm 0 mps 734 mmHg 97%
    05:00 +22°C° 0.1 mm 0 mps 734 mmHg 97%
    06:00 +22°C° 0.1 mm 0 mps 735 mmHg 97%
    07:00 +23°C° 0.1 mm 0 mps 735 mmHg 97%
    08:00 +23°C° 0.5 mm 0 mps 736 mmHg 97%
    09:00 +23°C° 0.5 mm 0 mps 736 mmHg 97%
    10:00 +23°C° 0.5 mm 0 mps 736 mmHg 97%
    11:00 +24°C° 0 mm 0 mps 736 mmHg 91%
    12:00 +27°C° 0 mm 1 mps 735 mmHg 85%
    13:00 +28°C° 0 mm 1 mps 735 mmHg 80%
    14:00 +29°C° 0 mm 1 mps 734 mmHg 76%
    15:00 +30°C° 0 mm 1 mps 734 mmHg 71%
    16:00 +31°C° 0 mm 1 mps 733 mmHg 67%
    17:00 +29°C° 0.6 mm 1 mps 733 mmHg 76%
    18:00 +27°C° 0.6 mm 1 mps 734 mmHg 84%
    19:00 +26°C° 0.6 mm 1 mps 734 mmHg 93%
    20:00 +26°C° 1.3 mm 1 mps 735 mmHg 94%
    21:00 +25°C° 1.3 mm 1 mps 735 mmHg 94%
    22:00 +23°C° 1.3 mm 0 mps 736 mmHg 95%
    23:00 +23°C° 0 mm 0 mps 735 mmHg 95%

    5 June, Friday

    Time Temperature Precipitation Wind Pressure Humidity
    00:00 +23°C° 0 mm 0 mps 735 mmHg 95%
    01:00 +23°C° 0 mm 0 mps 735 mmHg 96%
    02:00 +23°C° 0 mm 0 mps 735 mmHg 96%
    03:00 +22°C° 0 mm 0 mps 734 mmHg 96%
    04:00 +22°C° 0 mm 0 mps 734 mmHg 96%
    05:00 +22°C° 0 mm 0 mps 735 mmHg 96%
    06:00 +23°C° 0 mm 0 mps 735 mmHg 96%
    07:00 +23°C° 0 mm 0 mps 735 mmHg 95%
    08:00 +23°C° 0 mm 0 mps 736 mmHg 94%
    09:00 +24°C° 0 mm 0 mps 736 mmHg 93%
    10:00 +24°C° 0 mm 0 mps 736 mmHg 92%
    11:00 +26°C° 0 mm 0 mps 736 mmHg 84%
    12:00 +27°C° 0 mm 0 mps 735 mmHg 75%
    13:00 +31°C° 0 mm 1 mps 735 mmHg 67%
    14:00 +31°C° 0 mm 1 mps 734 mmHg 66%
    15:00 +31°C° 0 mm 1 mps 734 mmHg 66%
    16:00 +31°C° 0 mm 1 mps 733 mmHg 65%
    17:00 +27°C° 0.3 mm 0 mps 734 mmHg 72%
    18:00 +26°C° 0.3 mm 0 mps 734 mmHg 79%
    19:00 +24°C° 0.3 mm 0 mps 734 mmHg 86%
    20:00 +24°C° 0 mm 0 mps 735 mmHg 87%
    21:00 +24°C° 0 mm 0 mps 735 mmHg 88%
    22:00 +23°C° 0 mm 0 mps 735 mmHg 89%
    23:00 +23°C° 0.1 mm 0 mps 735 mmHg 91%
    Show more